Time,TemperatureF,DewpointF,PressureIn,WindDirection,WindDirectionDegrees,WindSpeedMPH,WindSpeedGustMPH,Humidity,HourlyPrecipIn,Conditions,Clouds,dailyrainin,SoftwareType,DateUTC
2013-06-10 00:04:00,81.1,71.7,29.74,ESE,112,10.3,10.3,73,0.00,,---,0.00,VWS V13.01,2013-06-10 04:04:00,
2013-06-10 00:09:00,81.1,71.7,29.74,ESE,112,10.3,10.3,73,0.00,,---,0.00,VWS V13.01,2013-06-10 04:09:00,
2013-06-10 00:14:00,81.1,71.7,29.74,ESE,112,1.8,10.3,73,0.00,,---,0.00,VWS V13.01,2013-06-10 04:14:00,
2013-06-10 00:24:00,81.0,71.5,29.74,East,90,9.2,9.2,73,0.00,,---,0.00,VWS V13.01,2013-06-10 04:24:00,
2013-06-10 00:34:00,81.0,71.5,29.73,ESE,112,6.0,6.0,73,0.00,,---,0.00,VWS V13.01,2013-06-10 04:34:00,
2013-06-10 00:44:00,81.0,71.9,29.73,ESE,112,7.2,7.2,74,0.00,,---,0.00,VWS V13.01,2013-06-10 04:44:00,
2013-06-10 00:54:00,81.0,71.5,29.73,ESE,112,6.9,6.9,73,0.00,,---,0.00,VWS V13.01,2013-06-10 04:54:00,
2013-06-10 00:59:00,81.0,71.5,29.73,ESE,112,4.7,6.9,73,0.00,,---,0.00,VWS V13.01,2013-06-10 04:59:00,
2013-06-10 01:09:00,81.0,71.5,29.73,ESE,112,4.7,6.9,73,0.00,,---,0.00,VWS V13.01,2013-06-10 05:09:00,
2013-06-10 01:14:00,81.0,71.5,29.73,ESE,112,4.7,4.7,73,0.00,,---,0.00,VWS V13.01,2013-06-10 05:14:00,
2013-06-10 01:24:00,81.0,71.9,29.72,ESE,112,7.8,9.8,74,0.00,,---,0.00,VWS V13.01,2013-06-10 05:24:00,
2013-06-10 01:29:00,81.0,71.9,29.72,ESE,112,6.7,7.8,74,0.00,,---,0.00,VWS V13.01,2013-06-10 05:29:00,
2013-06-10 01:39:00,80.8,72.1,29.72,ESE,112,5.6,6.3,75,0.00,,---,0.00,VWS V13.01,2013-06-10 05:39:00,
2013-06-10 01:49:00,80.8,71.7,29.71,ESE,112,7.4,7.4,74,0.00,,---,0.00,VWS V13.01,2013-06-10 05:49:00,
2013-06-10 01:54:00,80.8,72.1,29.72,ESE,112,2.9,8.7,75,0.00,,---,0.00,VWS V13.01,2013-06-10 05:54:00,
2013-06-10 02:04:00,80.8,72.1,29.71,ESE,112,6.9,6.9,75,0.00,,---,0.00,VWS V13.01,2013-06-10 06:04:00,
2013-06-10 02:09:00,80.8,72.1,29.71,ESE,112,6.9,6.9,75,0.00,,---,0.00,VWS V13.01,2013-06-10 06:09:00,
2013-06-10 02:14:00,80.8,72.1,29.71,ESE,112,6.9,6.9,75,0.00,,---,0.00,VWS V13.01,2013-06-10 06:14:00,
2013-06-10 02:24:00,80.8,72.1,29.71,ENE,68,6.3,6.3,75,0.00,,---,0.00,VWS V13.01,2013-06-10 06:24:00,
2013-06-10 02:34:00,80.8,72.1,29.71,ESE,112,6.0,7.6,75,0.00,,---,0.00,VWS V13.01,2013-06-10 06:34:00,
2013-06-10 02:44:00,80.8,72.1,29.71,East,90,2.0,2.0,75,0.00,,---,0.00,VWS V13.01,2013-06-10 06:44:00,
2013-06-10 02:49:00,80.6,71.9,29.71,East,90,2.0,2.0,75,0.00,,---,0.00,VWS V13.01,2013-06-10 06:49:00,
2013-06-10 02:59:00,80.6,71.9,29.71,ESE,112,9.2,9.6,75,0.00,,---,0.00,VWS V13.01,2013-06-10 06:59:00,
2013-06-10 03:04:00,80.8,72.1,29.71,East,90,5.1,9.2,75,0.00,,---,0.00,VWS V13.01,2013-06-10 07:04:00,
2013-06-10 03:14:00,80.6,71.9,29.71,East,90,1.1,7.4,75,0.00,,---,0.00,VWS V13.01,2013-06-10 07:14:00,
2013-06-10 03:19:00,80.6,71.9,29.70,ENE,68,6.5,6.5,75,0.00,,---,0.00,VWS V13.01,2013-06-10 07:19:00,
2013-06-10 03:29:00,80.4,71.8,29.70,ESE,112,2.0,6.7,75,0.00,,---,0.00,VWS V13.01,2013-06-10 07:29:00,
2013-06-10 03:34:00,80.4,71.8,29.70,East,90,2.9,2.9,75,0.00,,---,0.00,VWS V13.01,2013-06-10 07:34:00,
2013-06-10 03:44:00,80.6,71.9,29.70,ESE,112,5.1,5.1,75,0.00,,---,0.00,VWS V13.01,2013-06-10 07:44:00,
2013-06-10 03:54:00,80.6,71.9,29.70,East,90,4.0,6.9,75,0.00,,---,0.00,VWS V13.01,2013-06-10 07:54:00,
2013-06-10 03:59:00,80.6,71.9,29.70,ESE,112,5.8,5.8,75,0.00,,---,0.00,VWS V13.01,2013-06-10 07:59:00,
2013-06-10 04:09:00,80.4,71.8,29.70,SE,135,6.7,6.7,75,0.00,,---,0.00,VWS V13.01,2013-06-10 08:09:00,
2013-06-10 04:14:00,80.4,71.8,29.69,SE,135,10.1,10.1,75,0.00,,---,0.00,VWS V13.01,2013-06-10 08:14:00,
2013-06-10 04:24:00,80.4,72.2,29.69,South,180,4.0,7.8,76,0.00,,---,0.00,VWS V13.01,2013-06-10 08:24:00,
2013-06-10 04:34:00,80.4,71.8,29.69,SE,135,3.6,8.5,75,0.00,,---,0.00,VWS V13.01,2013-06-10 08:34:00,
2013-06-10 04:39:00,80.4,71.8,29.69,East,90,0.0,3.6,75,0.00,,---,0.00,VWS V13.01,2013-06-10 08:39:00,
2013-06-10 04:49:00,80.4,72.2,29.69,ESE,112,4.3,6.7,76,0.00,,---,0.00,VWS V13.01,2013-06-10 08:49:00,
2013-06-10 04:54:00,80.4,72.2,29.69,SE,135,5.1,8.5,76,0.00,,---,0.00,VWS V13.01,2013-06-10 08:54:00,
2013-06-10 05:04:00,80.4,72.2,29.69,East,90,4.5,8.3,76,0.00,,---,0.00,VWS V13.01,2013-06-10 09:04:00,
2013-06-10 05:09:00,80.4,72.2,29.69,ESE,112,5.4,5.4,76,0.00,,---,0.00,VWS V13.01,2013-06-10 09:09:00,
2013-06-10 05:19:00,80.4,72.2,29.69,SE,135,9.8,9.8,76,0.00,,---,0.00,VWS V13.01,2013-06-10 09:19:00,
2013-06-10 05:24:00,80.4,72.2,29.69,ESE,112,6.5,9.8,76,0.00,,---,0.00,VWS V13.01,2013-06-10 09:24:00,
2013-06-10 05:29:00,80.4,72.2,29.69,ESE,112,3.1,6.5,76,0.00,,---,0.00,VWS V13.01,2013-06-10 09:29:00,
2013-06-10 05:39:00,80.4,71.8,29.70,ESE,112,4.5,11.4,75,0.00,,---,0.00,VWS V13.01,2013-06-10 09:39:00,
2013-06-10 05:44:00,80.4,72.2,29.70,SE,135,1.3,5.6,76,0.00,,---,0.00,VWS V13.01,2013-06-10 09:44:00,
2013-06-10 05:54:00,80.4,72.2,29.70,ESE,112,1.6,4.3,76,0.00,,---,0.00,VWS V13.01,2013-06-10 09:54:00,
2013-06-10 05:59:00,80.4,72.2,29.70,SE,135,3.8,6.7,76,0.00,,---,0.00,VWS V13.01,2013-06-10 09:59:00,
2013-06-10 06:04:00,80.4,72.6,29.70,East,90,1.1,3.8,77,0.00,,---,0.00,VWS V13.01,2013-06-10 10:04:00,
2013-06-10 06:09:00,80.4,72.2,29.70,East,90,4.9,4.9,76,0.00,,---,0.00,VWS V13.01,2013-06-10 10:09:00,
2013-06-10 06:19:00,80.4,72.2,29.70,SE,135,6.3,9.8,76,0.00,,---,0.00,VWS V13.01,2013-06-10 10:19:00,
2013-06-10 06:24:00,80.4,72.2,29.70,East,90,2.7,6.3,76,0.00,,---,0.00,VWS V13.01,2013-06-10 10:24:00,
2013-06-10 06:34:00,80.4,72.2,29.70,ENE,68,4.7,5.1,76,0.00,,---,0.00,VWS V13.01,2013-06-10 10:34:00,
2013-06-10 06:44:00,80.4,72.2,29.70,ENE,68,2.0,10.5,76,0.00,,---,0.00,VWS V13.01,2013-06-10 10:44:00,
2013-06-10 06:49:00,80.4,72.2,29.71,East,90,6.9,6.9,76,0.00,,---,0.00,VWS V13.01,2013-06-10 10:49:00,
2013-06-10 06:59:00,80.8,72.1,29.71,ESE,112,5.8,5.8,75,0.00,,---,0.00,VWS V13.01,2013-06-10 10:59:00,
2013-06-10 07:09:00,81.0,72.3,29.71,East,90,6.9,6.9,75,0.00,,---,0.00,VWS V13.01,2013-06-10 11:09:00,
2013-06-10 07:14:00,81.0,72.3,29.71,East,90,6.9,6.9,75,0.00,,---,0.00,VWS V13.01,2013-06-10 11:14:00,
2013-06-10 07:24:00,81.1,72.5,29.71,ESE,112,5.4,7.8,75,0.00,,---,0.00,VWS V13.01,2013-06-10 11:24:00,
2013-06-10 07:29:00,81.3,72.2,29.71,ESE,112,4.7,5.4,74,0.00,,---,0.00,VWS V13.01,2013-06-10 11:29:00,
2013-06-10 07:39:00,81.7,72.6,29.71,ESE,112,1.1,4.7,74,0.00,,---,0.00,VWS V13.01,2013-06-10 11:39:00,
2013-06-10 07:49:00,82.2,73.1,29.71,East,90,8.1,8.1,74,0.00,,---,0.00,VWS V13.01,2013-06-10 11:49:00,
2013-06-10 07:59:00,82.9,73.4,29.71,SE,135,11.6,11.6,73,0.00,,---,0.00,VWS V13.01,2013-06-10 11:59:00,
2013-06-10 08:04:00,82.9,73.0,29.71,East,90,9.8,11.6,72,0.00,,---,0.00,VWS V13.01,2013-06-10 12:04:00,
2013-06-10 08:14:00,83.5,73.1,29.72,ESE,112,10.7,10.7,71,0.00,,---,0.00,VWS V13.01,2013-06-10 12:14:00,
2013-06-10 08:19:00,83.7,73.3,29.71,SE,135,7.4,10.7,71,0.00,,---,0.00,VWS V13.01,2013-06-10 12:19:00,
2013-06-10 08:29:00,84.0,74.0,29.72,SE,135,3.6,7.2,72,0.00,,---,0.00,VWS V13.01,2013-06-10 12:29:00,
2013-06-10 08:39:00,84.4,73.5,29.73,ESE,112,6.9,8.5,70,0.00,,---,0.00,VWS V13.01,2013-06-10 12:39:00,
2013-06-10 08:49:00,84.4,73.9,29.73,NE,45,7.4,12.8,71,0.00,,---,0.00,VWS V13.01,2013-06-10 12:49:00,
2013-06-10 08:59:00,84.0,73.6,29.73,SE,135,11.4,11.4,71,0.00,,---,0.00,VWS V13.01,2013-06-10 12:59:00,
2013-06-10 09:09:00,85.3,74.0,29.73,ESE,112,3.6,3.6,69,0.00,,---,0.00,VWS V13.01,2013-06-10 13:09:00,
2013-06-10 09:14:00,85.3,74.0,29.73,ESE,112,1.1,3.6,69,0.00,,---,0.00,VWS V13.01,2013-06-10 13:14:00,
2013-06-10 09:24:00,85.8,74.0,29.73,ESE,112,5.4,7.8,68,0.00,,---,0.00,VWS V13.01,2013-06-10 13:24:00,
2013-06-10 09:34:00,86.0,74.2,29.72,SE,135,7.6,8.7,68,0.00,,---,0.00,VWS V13.01,2013-06-10 13:34:00,
2013-06-10 09:44:00,86.7,74.9,29.72,ESE,112,8.5,8.5,68,0.00,,---,0.00,VWS V13.01,2013-06-10 13:44:00,
2013-06-10 09:54:00,87.6,74.9,29.73,ESE,112,11.6,11.6,66,0.00,,---,0.00,VWS V13.01,2013-06-10 13:54:00,
2013-06-10 10:04:00,87.1,74.8,29.73,ESE,112,3.6,11.6,67,0.00,,---,0.00,VWS V13.01,2013-06-10 14:04:00,
2013-06-10 10:09:00,87.6,74.9,29.73,East,90,8.1,8.1,66,0.00,,---,0.00,VWS V13.01,2013-06-10 14:09:00,
2013-06-10 10:14:00,87.4,74.2,29.73,SE,135,6.9,14.5,65,0.00,,---,0.00,VWS V13.01,2013-06-10 14:14:00,
2013-06-10 10:24:00,87.4,74.7,29.73,SSE,158,5.4,8.5,66,0.00,,---,0.00,VWS V13.01,2013-06-10 14:24:00,
2013-06-10 10:29:00,88.0,75.2,29.73,East,90,6.9,9.0,66,0.00,,---,0.00,VWS V13.01,2013-06-10 14:29:00,
2013-06-10 10:39:00,88.0,75.2,29.73,East,90,2.5,9.0,66,0.00,,---,0.00,VWS V13.01,2013-06-10 14:39:00,
2013-06-10 10:44:00,88.0,75.2,29.73,ESE,112,7.4,7.4,66,0.00,,---,0.00,VWS V13.01,2013-06-10 14:44:00,
2013-06-10 10:54:00,88.3,75.1,29.73,East,90,8.3,9.4,65,0.00,,---,0.00,VWS V13.01,2013-06-10 14:54:00,
2013-06-10 10:59:00,88.3,75.1,29.74,ESE,112,4.7,9.4,65,0.00,,---,0.00,VWS V13.01,2013-06-10 14:59:00,
2013-06-10 11:04:00,88.7,75.0,29.74,East,90,8.3,8.3,64,0.00,,---,0.00,VWS V13.01,2013-06-10 15:04:00,
2013-06-10 11:14:00,88.0,74.8,29.74,ESE,112,2.5,8.3,65,0.00,,---,0.00,VWS V13.01,2013-06-10 15:14:00,
2013-06-10 11:19:00,88.9,75.1,29.74,SE,135,2.9,5.8,64,0.00,,---,0.00,VWS V13.01,2013-06-10 15:19:00,
2013-06-10 11:29:00,88.9,75.1,29.74,SE,135,3.8,3.8,64,0.00,,---,0.00,VWS V13.01,2013-06-10 15:29:00,
2013-06-10 11:34:00,89.4,75.6,29.73,SE,135,1.6,9.4,64,0.00,,---,0.00,VWS V13.01,2013-06-10 15:34:00,
2013-06-10 11:44:00,90.3,76.5,29.73,East,90,7.2,7.6,64,0.00,,---,0.00,VWS V13.01,2013-06-10 15:44:00,
2013-06-10 11:54:00,88.7,75.0,29.73,ESE,112,4.3,7.4,64,0.00,,---,0.00,VWS V13.01,2013-06-10 15:54:00,
2013-06-10 11:59:00,88.7,75.0,29.73,East,90,10.3,10.3,64,0.00,,---,0.00,VWS V13.01,2013-06-10 15:59:00,
2013-06-10 12:09:00,88.5,75.3,29.73,ESE,112,0.7,7.4,65,0.00,,---,0.00,VWS V13.01,2013-06-10 16:09:00,
2013-06-10 12:14:00,88.5,74.8,29.73,ESE,112,8.7,10.3,64,0.00,,---,0.00,VWS V13.01,2013-06-10 16:14:00,
2013-06-10 12:19:00,88.9,75.6,29.72,ENE,68,8.1,8.7,65,0.00,,---,0.00,VWS V13.01,2013-06-10 16:19:00,
2013-06-10 12:29:00,89.2,75.9,29.72,ENE,68,4.3,4.3,65,0.00,,---,0.00,VWS V13.01,2013-06-10 16:29:00,
2013-06-10 12:39:00,89.2,75.9,29.72,SE,135,5.1,5.4,65,0.00,,---,0.00,VWS V13.01,2013-06-10 16:39:00,
2013-06-10 12:49:00,89.4,75.6,29.71,SE,135,4.9,4.9,64,0.00,,---,0.00,VWS V13.01,2013-06-10 16:49:00,
2013-06-10 12:54:00,89.4,75.6,29.71,SE,135,4.9,4.9,64,0.00,,---,0.00,VWS V13.01,2013-06-10 16:54:00,
2013-06-10 12:59:00,90.0,76.2,29.71,ESE,112,2.0,4.9,64,0.00,,---,0.00,VWS V13.01,2013-06-10 16:59:00,
2013-06-10 13:09:00,90.3,76.0,29.71,ESE,112,3.4,8.3,63,0.00,,---,0.00,VWS V13.01,2013-06-10 17:09:00,
2013-06-10 13:19:00,90.5,75.7,29.71,ESE,112,8.3,8.3,62,0.00,,---,0.00,VWS V13.01,2013-06-10 17:19:00,
2013-06-10 13:29:00,89.8,75.5,29.71,SE,135,7.6,8.3,63,0.00,,---,0.00,VWS V13.01,2013-06-10 17:29:00,
2013-06-10 13:34:00,89.8,75.5,29.71,East,90,10.5,10.5,63,0.00,,---,0.00,VWS V13.01,2013-06-10 17:34:00,
2013-06-10 13:44:00,89.4,75.6,29.70,ESE,112,3.8,7.4,64,0.00,,---,0.00,VWS V13.01,2013-06-10 17:44:00,
2013-06-10 13:49:00,89.4,75.6,29.71,SE,135,7.6,7.6,64,0.00,,---,0.00,VWS V13.01,2013-06-10 17:49:00,
2013-06-10 13:59:00,89.4,75.2,29.71,ESE,112,7.4,7.6,63,0.00,,---,0.00,VWS V13.01,2013-06-10 17:59:00,
2013-06-10 14:09:00,89.8,75.0,29.70,ENE,68,6.9,11.6,62,0.00,,---,0.00,VWS V13.01,2013-06-10 18:09:00,
2013-06-10 14:19:00,89.6,75.3,29.70,ESE,112,6.0,13.4,63,0.00,,---,0.00,VWS V13.01,2013-06-10 18:19:00,
2013-06-10 14:29:00,90.3,75.1,29.71,East,90,2.5,7.6,61,0.00,,---,0.00,VWS V13.01,2013-06-10 18:29:00,
2013-06-10 14:34:00,90.0,75.2,29.71,NE,45,0.0,2.5,62,0.00,,---,0.00,VWS V13.01,2013-06-10 18:34:00,
2013-06-10 14:44:00,90.3,75.5,29.70,ESE,112,12.1,12.1,62,0.00,,---,0.00,VWS V13.01,2013-06-10 18:44:00,
2013-06-10 14:54:00,90.0,75.2,29.69,SE,135,6.0,6.0,62,0.00,,---,0.00,VWS V13.01,2013-06-10 18:54:00,
2013-06-10 15:04:00,89.8,75.0,29.69,SE,135,9.4,9.4,62,0.00,,---,0.00,VWS V13.01,2013-06-10 19:04:00,
2013-06-10 15:14:00,90.0,75.2,29.70,East,90,6.0,6.9,62,0.00,,---,0.00,VWS V13.01,2013-06-10 19:14:00,
2013-06-10 15:19:00,90.0,75.2,29.69,East,90,8.1,8.1,62,0.00,,---,0.00,VWS V13.01,2013-06-10 19:19:00,
2013-06-10 15:29:00,90.0,75.2,29.69,West,270,6.7,11.9,62,0.00,,---,0.00,VWS V13.01,2013-06-10 19:29:00,
2013-06-10 15:34:00,89.8,74.6,29.69,WSW,248,10.3,10.3,61,0.00,,---,0.00,VWS V13.01,2013-06-10 19:34:00,
2013-06-10 15:44:00,89.4,74.7,29.69,WSW,248,10.3,11.4,62,0.00,,---,0.00,VWS V13.01,2013-06-10 19:44:00,
2013-06-10 15:49:00,89.2,74.5,29.69,East,90,7.2,10.3,62,0.00,,---,0.00,VWS V13.01,2013-06-10 19:49:00,
2013-06-10 15:59:00,88.7,74.5,29.69,WSW,248,9.2,9.2,63,0.00,,---,0.00,VWS V13.01,2013-06-10 19:59:00,
2013-06-10 16:09:00,88.9,74.7,29.68,WSW,248,9.8,9.8,63,0.00,,---,0.00,VWS V13.01,2013-06-10 20:09:00,
2013-06-10 16:19:00,89.2,75.0,29.68,ENE,68,6.9,6.9,63,0.00,,---,0.00,VWS V13.01,2013-06-10 20:19:00,
2013-06-10 16:24:00,89.2,75.0,29.68,WSW,248,6.9,6.9,63,0.00,,---,0.00,VWS V13.01,2013-06-10 20:24:00,
2013-06-10 16:34:00,89.1,74.3,29.68,WSW,248,3.6,12.8,62,0.00,,---,0.00,VWS V13.01,2013-06-10 20:34:00,
2013-06-10 16:44:00,88.9,74.7,29.68,WSW,248,4.3,4.3,63,0.00,,---,0.00,VWS V13.01,2013-06-10 20:44:00,
2013-06-10 16:49:00,88.5,74.3,29.68,WSW,248,7.8,8.3,63,0.00,,---,0.00,VWS V13.01,2013-06-10 20:49:00,
2013-06-10 16:59:00,88.9,75.1,29.68,WSW,248,3.6,3.6,64,0.00,,---,0.00,VWS V13.01,2013-06-10 20:59:00,
2013-06-10 17:09:00,88.3,74.2,29.67,East,90,5.6,6.0,63,0.00,,---,0.00,VWS V13.01,2013-06-10 21:09:00,
2013-06-10 17:19:00,88.3,74.6,29.67,ESE,112,9.8,9.8,64,0.00,,---,0.00,VWS V13.01,2013-06-10 21:19:00,
2013-06-10 17:29:00,87.6,74.4,29.66,WSW,248,4.0,12.5,65,0.00,,---,0.00,VWS V13.01,2013-06-10 21:29:00,
2013-06-10 17:34:00,87.6,74.4,29.66,WSW,248,8.3,8.3,65,0.00,,---,0.00,VWS V13.01,2013-06-10 21:34:00,
2013-06-10 17:44:00,87.6,74.4,29.66,WSW,248,5.6,6.3,65,0.00,,---,0.00,VWS V13.01,2013-06-10 21:44:00,
2013-06-10 17:54:00,87.8,74.6,29.67,WSW,248,4.5,10.5,65,0.00,,---,0.00,VWS V13.01,2013-06-10 21:54:00,
2013-06-10 18:04:00,87.6,74.4,29.67,WSW,248,4.5,4.9,65,0.00,,---,0.00,VWS V13.01,2013-06-10 22:04:00,
2013-06-10 18:09:00,88.0,74.8,29.67,WSW,248,5.1,5.1,65,0.00,,---,0.00,VWS V13.01,2013-06-10 22:09:00,
2013-06-10 18:19:00,88.0,74.8,29.66,WSW,248,9.4,9.4,65,0.00,,---,0.00,VWS V13.01,2013-06-10 22:19:00,
2013-06-10 18:24:00,87.4,74.2,29.66,ESE,112,6.9,9.4,65,0.00,,---,0.00,VWS V13.01,2013-06-10 22:24:00,
2013-06-10 18:29:00,87.1,73.9,29.66,WSW,248,9.0,9.0,65,0.00,,---,0.00,VWS V13.01,2013-06-10 22:29:00,
2013-06-10 18:39:00,86.5,74.3,29.66,WSW,248,8.1,11.6,67,0.00,,---,0.00,VWS V13.01,2013-06-10 22:39:00,
2013-06-10 18:44:00,86.5,74.3,29.66,ESE,112,11.0,11.0,67,0.00,,---,0.00,VWS V13.01,2013-06-10 22:44:00,
2013-06-10 18:49:00,86.4,74.1,29.66,ESE,112,7.6,11.0,67,0.00,,---,0.00,VWS V13.01,2013-06-10 22:49:00,
2013-06-10 18:59:00,85.8,74.0,29.66,ESE,112,4.3,6.9,68,0.00,,---,0.00,VWS V13.01,2013-06-10 22:59:00,
2013-06-10 19:04:00,85.8,74.0,29.66,ESE,112,4.3,4.3,68,0.00,,---,0.00,VWS V13.01,2013-06-10 23:04:00,
2013-06-10 19:14:00,85.3,73.5,29.66,East,90,7.8,9.0,68,0.00,,---,0.00,VWS V13.01,2013-06-10 23:14:00,
2013-06-10 19:24:00,84.9,73.6,29.66,NE,45,2.0,4.5,69,0.00,,---,0.00,VWS V13.01,2013-06-10 23:24:00,
2013-06-10 19:29:00,85.1,73.8,29.66,ENE,68,2.0,2.0,69,0.00,,---,0.00,VWS V13.01,2013-06-10 23:29:00,
2013-06-10 19:39:00,84.6,73.3,29.66,East,90,6.5,6.5,69,0.00,,---,0.00,VWS V13.01,2013-06-10 23:39:00,
2013-06-10 19:49:00,84.0,73.2,29.67,ESE,112,2.9,2.9,70,0.00,,---,0.00,VWS V13.01,2013-06-10 23:49:00,
2013-06-10 19:59:00,83.7,73.3,29.66,East,90,4.3,4.3,71,0.00,,---,0.00,VWS V13.01,2013-06-10 23:59:00,
2013-06-10 20:09:00,83.7,73.3,29.66,ENE,68,0.4,2.0,71,0.00,,---,0.00,VWS V13.01,2013-06-11 00:09:00,
2013-06-10 20:19:00,83.5,73.1,29.67,SE,135,6.0,6.0,71,0.00,,---,0.00,VWS V13.01,2013-06-11 00:19:00,
2013-06-10 20:29:00,83.3,72.9,29.68,East,90,19.2,19.2,71,0.00,,---,0.00,VWS V13.01,2013-06-11 00:29:00,
2013-06-10 20:34:00,83.3,72.9,29.68,East,90,19.2,19.2,71,0.00,,---,0.00,VWS V13.01,2013-06-11 00:34:00,
2013-06-10 20:39:00,83.1,73.2,29.68,East,90,2.7,19.2,72,0.00,,---,0.00,VWS V13.01,2013-06-11 00:39:00,
2013-06-10 20:49:00,82.9,73.0,29.68,ESE,112,4.5,4.5,72,0.00,,---,0.00,VWS V13.01,2013-06-11 00:49:00,
2013-06-10 20:54:00,82.9,73.0,29.69,SE,135,2.2,4.5,72,0.00,,---,0.00,VWS V13.01,2013-06-11 00:54:00,
2013-06-10 21:04:00,82.8,73.2,29.69,ESE,112,0.9,7.6,73,0.00,,---,0.00,VWS V13.01,2013-06-11 01:04:00,
2013-06-10 21:14:00,82.8,73.2,29.69,ESE,112,7.4,8.1,73,0.00,,---,0.00,VWS V13.01,2013-06-11 01:14:00,
2013-06-10 21:24:00,82.8,73.2,29.70,ESE,112,2.5,7.4,73,0.00,,---,0.00,VWS V13.01,2013-06-11 01:24:00,
2013-06-10 21:34:00,82.6,73.5,29.70,ESE,112,0.7,4.9,74,0.00,,---,0.00,VWS V13.01,2013-06-11 01:34:00,
2013-06-10 21:39:00,82.6,73.5,29.70,SE,135,6.9,6.9,74,0.00,,---,0.00,VWS V13.01,2013-06-11 01:39:00,
2013-06-10 21:44:00,82.6,73.5,29.70,East,90,1.6,6.9,74,0.00,,---,0.00,VWS V13.01,2013-06-11 01:44:00,
2013-06-10 21:54:00,82.4,73.3,29.71,SE,135,7.2,7.2,74,0.00,,---,0.00,VWS V13.01,2013-06-11 01:54:00,
2013-06-10 22:04:00,82.6,73.5,29.71,ESE,112,0.0,0.0,74,0.00,,---,0.00,VWS V13.01,2013-06-11 02:04:00,
2013-06-10 22:14:00,82.6,73.9,29.72,East,90,5.6,6.0,75,0.00,,---,0.00,VWS V13.01,2013-06-11 02:14:00,
2013-06-10 22:19:00,82.6,73.5,29.72,SE,135,3.1,5.6,74,0.00,,---,0.00,VWS V13.01,2013-06-11 02:19:00,
2013-06-10 22:29:00,82.6,73.9,29.72,SE,135,2.2,2.9,75,0.00,,---,0.00,VWS V13.01,2013-06-11 02:29:00,
2013-06-10 22:39:00,82.2,73.5,29.72,East,90,4.3,6.9,75,0.00,,---,0.00,VWS V13.01,2013-06-11 02:39:00,
2013-06-10 22:49:00,82.2,73.5,29.72,East,90,4.3,4.3,75,0.00,,---,0.00,VWS V13.01,2013-06-11 02:49:00,
2013-06-10 22:54:00,82.2,73.5,29.72,East,90,4.3,4.3,75,0.00,,---,0.00,VWS V13.01,2013-06-11 02:54:00,
2013-06-10 22:59:00,82.4,73.7,29.72,East,90,4.3,4.3,75,0.00,,---,0.00,VWS V13.01,2013-06-11 02:59:00,
2013-06-10 23:09:00,82.2,73.5,29.72,ESE,112,6.7,6.7,75,0.00,,---,0.00,VWS V13.01,2013-06-11 03:09:00,
2013-06-10 23:14:00,82.2,73.5,29.72,East,90,5.4,6.7,75,0.00,,---,0.00,VWS V13.01,2013-06-11 03:14:00,
2013-06-10 23:19:00,82.2,73.5,29.72,ESE,112,6.9,6.9,75,0.00,,---,0.00,VWS V13.01,2013-06-11 03:19:00,
2013-06-10 23:29:00,82.2,73.5,29.72,ESE,112,5.6,6.0,75,0.00,,---,0.00,VWS V13.01,2013-06-11 03:29:00,
2013-06-10 23:39:00,82.2,73.5,29.73,ESE,112,4.3,5.6,75,0.00,,---,0.00,VWS V13.01,2013-06-11 03:39:00,
2013-06-10 23:49:00,82.2,73.5,29.72,SE,135,0.0,3.8,75,0.00,,---,0.00,VWS V13.01,2013-06-11 03:49:00,
2013-06-10 23:54:00,82.2,73.5,29.72,SE,135,1.3,3.1,75,0.00,,---,0.00,VWS V13.01,2013-06-11 03:54:00,
2013-06-10 23:59:00,82.2,73.5,29.72,ESE,112,2.0,2.0,75,0.00,,---,0.00,VWS V13.01,2013-06-11 03:59:00,